Change the Weather History Date:

Thursday, June 13, 2013

  Actual Average Record
Temperature  
Mean Temperature 69 °F 68 °F  
Max Temperature 78 °F 79 °F 93 °F (1956)
Min Temperature 59 °F 57 °F 33 °F (1997)
Degree Days  
Heating Degree Days 0 2  
Month to date heating degree days 36 36  
Since 1 June heating degree days 36 36  
Since 1 July heating degree days 6308 6404  
Cooling Degree Days 4 4  
Month to date cooling degree days 30 45  
Year to date cooling degree days 110 86  
Since 1 June cooling degree days 30 45  
Growing Degree Days 18 (Base 50)    
Moisture  
Dew Point 58 °F    
Average Humidity 70    
Maximum Humidity 93    
Minimum Humidity 46    
Precipitation  
Precipitation 0.04 in 0.12 in 2.59 in (2005)
Month to date precipitation 0.98 1.72  
Year to date precipitation 16.04 14.16  
Sea Level Pressure  
Sea Level Pressure 29.78 in    
Wind  
Wind Speed 11 mph (NNW)    
Max Wind Speed 22 mph    
Max Gust Speed 29 mph    
Visibility 10 miles    
Events Rain , Thunderstorm    
T = Trace of Precipitation, MM = Missing Value Source: NWS Daily Summary

Daily Weather History Graph

Daily Weather History Graph

Search for Another Location

Airport or City:

Trip Planner

Search our weather history database for the weather conditions in past years. The results will help you decide how hot, cold, wet, or windy it might be!

Date:

Astronomy

Jun. 13, 2013 Rise Set
Actual Time 6:05 AM EDT 9:19 PM EDT
Civil Twilight 5:30 AM EDT 9:54 PM EDT
Nautical Twilight 4:46 AM EDT 10:38 PM EDT
Astronomical Twilight 3:52 AM EDT 11:32 PM EDT
Moon 10:45 AM EDT (6/13) No Moon Set
Length of Visible Light 16h 23m
Length of Day
15h 14m
Waxing Crescent, 21% of the Moon is Illuminated
Jun 13
Waxing Crescent
Jun 16
First Quarter
Jun 23
Full
Jun 30
Last Quarter
Jul 8
New

Hourly Weather History & Observations

Time (EDT) Temp. Dew Point Humidity Pressure Visibility Wind Dir Wind Speed Gust Speed Precip Events Conditions
12:44 AM 66.2 °F 62.6 °F 88% 29.62 in 10.0 mi NE 9.2 mph 18.4 mph 0.06 in Rain , Thunderstorm Light Rain
12:53 AM 66.0 °F 63.0 °F 90% 29.62 in 3.0 mi NNE 8.1 mph - 0.07 in Rain Light Rain
1:53 AM 66.0 °F 63.0 °F 90% 29.65 in 10.0 mi WNW 9.2 mph - 0.04 in Rain Light Rain
2:09 AM 66.2 °F 64.4 °F 94% 29.66 in 10.0 mi West 6.9 mph - 0.00 in   Overcast
2:17 AM 64.4 °F 62.6 °F 94% 29.65 in 10.0 mi NW 4.6 mph - 0.00 in   Mostly Cloudy
2:38 AM 64.4 °F 62.6 °F 94% 29.64 in 10.0 mi North 5.8 mph - 0.00 in   Scattered Clouds
2:53 AM 64.9 °F 63.0 °F 93% 29.63 in 10.0 mi North 5.8 mph - 0.00 in   Clear
3:53 AM 64.0 °F 62.1 °F 93% 29.62 in 10.0 mi NNW 9.2 mph - N/A   Scattered Clouds
4:03 AM 64.4 °F 62.6 °F 94% 29.65 in 10.0 mi NW 9.2 mph - N/A   Mostly Cloudy
4:53 AM 64.9 °F 63.0 °F 93% 29.66 in 9.0 mi NNW 6.9 mph - N/A   Overcast
5:43 AM 62.6 °F 57.2 °F 82% 29.72 in 10.0 mi NNE 6.9 mph 20.7 mph 0.01 in Rain Light Rain
5:53 AM 62.1 °F 57.0 °F 84% 29.71 in 10.0 mi NNE 4.6 mph - 0.01 in Rain Light Rain
6:15 AM 62.6 °F 57.2 °F 82% 29.73 in 10.0 mi NNE 4.6 mph - 0.00 in Rain Light Rain
6:53 AM 61.0 °F 55.9 °F 83% 29.73 in 10.0 mi North 4.6 mph - 0.00 in   Overcast
7:53 AM 62.1 °F 57.0 °F 84% 29.76 in 10.0 mi North 11.5 mph - N/A   Overcast
8:53 AM 64.9 °F 57.9 °F 78% 29.78 in 10.0 mi North 12.7 mph - N/A   Mostly Cloudy
9:53 AM 70.0 °F 57.0 °F 63% 29.80 in 10.0 mi North 10.4 mph - N/A   Clear
10:53 AM 72.0 °F 55.9 °F 57% 29.81 in 10.0 mi NNW 11.5 mph 20.7 mph N/A   Partly Cloudy
11:53 AM 73.9 °F 54.0 °F 50% 29.83 in 10.0 mi North 17.3 mph 24.2 mph N/A   Partly Cloudy
12:53 PM 75.9 °F 55.0 °F 48% 29.84 in 10.0 mi North 11.5 mph 23.0 mph N/A   Partly Cloudy
1:53 PM 75.9 °F 54.0 °F 46% 29.85 in 10.0 mi North 18.4 mph 25.3 mph N/A   Scattered Clouds
2:53 PM 75.9 °F 55.0 °F 48% 29.86 in 10.0 mi NNW 12.7 mph - N/A   Scattered Clouds
3:53 PM 75.9 °F 57.9 °F 54% 29.87 in 10.0 mi NW 12.7 mph - N/A   Scattered Clouds
4:53 PM 75.9 °F 57.0 °F 52% 29.88 in 10.0 mi WNW 15.0 mph - N/A   Scattered Clouds
5:53 PM 73.0 °F 55.9 °F 55% 29.90 in 10.0 mi WNW 16.1 mph 24.2 mph N/A   Scattered Clouds
6:53 PM 71.1 °F 54.0 °F 55% 29.91 in 10.0 mi WNW 16.1 mph 21.9 mph N/A   Partly Cloudy
7:53 PM 69.1 °F 55.9 °F 63% 29.92 in 10.0 mi NW 12.7 mph - N/A   Clear
8:53 PM 66.0 °F 55.0 °F 68% 29.93 in 10.0 mi NW 6.9 mph - N/A   Clear
9:53 PM 64.0 °F 55.0 °F 73% 29.95 in 10.0 mi NW 10.4 mph - N/A   Clear
10:53 PM 62.1 °F 55.9 °F 80% 29.97 in 10.0 mi NNW 11.5 mph - N/A   Clear
11:53 PM 61.0 °F 55.9 °F 83% 29.98 in 10.0 mi NNW 6.9 mph - N/A   Clear